CW3467 Sant Marti de Canals ES current weather conditions

sailwx.info

Wind from 111

Air temperature 16.7° C
Dewpoint 12.6° C

Last reported at 2014-Oct-30 17:35 UTC.
Time now 2014-Oct-30 19:05 UTC

Location: N 42°14' E 000°59'.
View on Google Maps.

See reports from other nearby stations

  
Tides and Currents Weather Stations Pressure Air Temp Water Temp Dewpoint Dewpoint Depression Visibility Wind Speed Wind Dir Waves Ship Positions
date/time (UTC)wind fromknots sea level pressurealtimeterstation pressurevisibilityair tempwater tempwave heightnotes
2014-Oct-30 18:50 089 14.4
2014-Oct-30 18:35 084 15.0
2014-Oct-30 18:20 084 15.0
2014-Oct-30 18:05 087 15.6
2014-Oct-30 17:50 110 16.1
2014-Oct-30 17:35 111 16.7
2014-Oct-30 17:20 110 17.2
2014-Oct-30 17:05 122 17.2
2014-Oct-30 16:50 122 18.3
2014-Oct-30 16:35 244 20.0
2014-Oct-30 16:20 244 20.6
2014-Oct-30 16:05 222 21.1
2014-Oct-30 15:50 229 21.7
2014-Oct-30 15:35 245 21.7
2014-Oct-30 15:20 173 21.1
2014-Oct-30 15:05 276 21.7
2014-Oct-30 14:50 231 21.1
2014-Oct-30 14:35 200 21.1
2014-Oct-30 14:20 218 21.1
2014-Oct-30 14:05 176 21.1
2014-Oct-30 13:50 154 20.6
2014-Oct-30 13:35 229 20.0
2014-Oct-30 13:20 201 20.0
2014-Oct-30 13:05 284 0 gusting 2 18.9
2014-Oct-30 12:50 257 18.9
2014-Oct-30 12:35 255 18.9
2014-Oct-30 12:20 150 18.3
2014-Oct-30 12:05 205 17.8
2014-Oct-30 11:50 224 0 gusting 2 17.8
2014-Oct-30 11:35 191 17.2
2014-Oct-30 11:20 128 0 gusting 2 16.7
2014-Oct-30 11:05 078 16.7
2014-Oct-30 10:50 224 16.1
2014-Oct-30 10:35 229 15.0
2014-Oct-30 10:19 252 14.4
2014-Oct-30 10:04 239 14.4
2014-Oct-30 09:49 227 14.4
2014-Oct-30 09:34 208 13.9
2014-Oct-30 09:19 145 13.3
2014-Oct-30 09:04 145 12.8
2014-Oct-30 08:49 226 12.8
2014-Oct-30 08:34 225 12.2
2014-Oct-30 08:19 243 11.1
2014-Oct-30 08:04 242 10.6
2014-Oct-30 07:49 136 10.0
2014-Oct-30 07:34 107 8.9
2014-Oct-30 07:19 107 8.3
2014-Oct-30 07:04 330 7.8
2014-Oct-30 06:49 060 7.8
2014-Oct-30 06:34 333 7.8
2014-Oct-30 06:19 333 7.8
2014-Oct-30 06:04 100 0 gusting 1 8.3
2014-Oct-30 05:49 085 7.8
2014-Oct-30 05:34 057 7.8
2014-Oct-30 05:19 091 7.8
2014-Oct-30 05:04 052 8.3
2014-Oct-30 04:49 056 8.3
2014-Oct-30 04:34 327 8.3
2014-Oct-30 04:19 117 8.9
2014-Oct-30 04:04 111 8.9
2014-Oct-30 03:49 092 8.3
2014-Oct-30 03:35 100 8.9
2014-Oct-30 03:19 100 8.9
2014-Oct-30 03:04 100 9.4
2014-Oct-30 02:49 091 9.4
2014-Oct-30 02:34 113 8.9
2014-Oct-30 02:19 093 8.9
2014-Oct-30 02:04 093 9.4
2014-Oct-30 01:49 101 9.4
2014-Oct-30 01:33 101 9.4
2014-Oct-30 01:18 097 9.4
2014-Oct-30 01:03 103 9.4
2014-Oct-30 00:48 103 10.0
2014-Oct-30 00:33 103 10.0
2014-Oct-30 00:18 103 10.0
2014-Oct-30 00:03 102 10.0
2014-Oct-29 23:48 101 10.6
2014-Oct-29 23:33 102 10.6
2014-Oct-29 23:18 133 10.6
2014-Oct-29 23:03 126 11.1
2014-Oct-29 22:48 114 1 gusting 1 11.1
2014-Oct-29 22:33 102 11.1
2014-Oct-29 22:18 129 11.1
2014-Oct-29 21:48 129 11.7
2014-Oct-29 21:34 114 11.7
2014-Oct-29 21:18 109 12.2
2014-Oct-29 21:03 115 0 gusting 1 12.2
2014-Oct-29 20:48 094 12.2
2014-Oct-29 20:33 136 12.2
2014-Oct-29 20:18 131 0 gusting 2 12.8
2014-Oct-29 20:03 094 0 gusting 1 12.8
2014-Oct-29 19:48 155 13.3
2014-Oct-29 19:33 155 13.3
2014-Oct-29 19:18 158 13.9
2014-Oct-29 19:03 070 13.9
2014-Oct-29 18:48 060 14.4
2014-Oct-29 18:33 060 14.4
2014-Oct-29 18:18 029 15.0
2014-Oct-29 18:03 038 15.0
2014-Oct-29 17:48 033 15.0
2014-Oct-29 17:33 035 15.6
2014-Oct-29 17:18 358 16.1
2014-Oct-29 17:03 278 16.7
2014-Oct-29 16:48 285 17.8
2014-Oct-29 16:33 248 18.9
2014-Oct-29 16:18 233 20.0
2014-Oct-29 16:03 260 20.6
2014-Oct-29 15:48 233 0 gusting 4 20.6
2014-Oct-29 15:33 167 0 gusting 2 21.1
2014-Oct-29 15:18 158 2 gusting 5 20.6
2014-Oct-29 15:03 228 0 gusting 4 20.6
2014-Oct-29 14:48 229 1 gusting 5 20.6
2014-Oct-29 14:33 245 2 gusting 6 20.6
2014-Oct-29 14:18 177 20.6
2014-Oct-29 14:02 152 20.6
2014-Oct-29 13:47 190 1 gusting 4 20.6
2014-Oct-29 13:32 338 20.0
2014-Oct-29 13:17 194 19.4
2014-Oct-29 13:02 225 19.4
2014-Oct-29 12:47 264 19.4
2014-Oct-29 12:32 266 18.9
2014-Oct-29 12:17 210 1 gusting 5 18.9
2014-Oct-29 12:02 183 0 gusting 5 18.3
2014-Oct-29 11:47 181 1 gusting 6 18.3
2014-Oct-29 11:32 222 1 gusting 3 18.3
2014-Oct-29 11:17 235 0 gusting 4 18.3
2014-Oct-29 11:02 255 0 gusting 4 18.3
2014-Oct-29 10:47 148 0 gusting 4 17.8
2014-Oct-29 10:32 231 0 gusting 3 17.8
2014-Oct-29 10:17 225 0 gusting 5 17.2
2014-Oct-29 10:02 232 1 gusting 3 16.7
2014-Oct-29 09:47 218 16.1
2014-Oct-29 09:32 128 0 gusting 3 15.6
2014-Oct-29 09:17 198 15.6
2014-Oct-29 09:02 136 0 gusting 2 15.0
2014-Oct-29 08:47 150 0 gusting 3 14.4
2014-Oct-29 08:32 145 0 gusting 2 14.4
2014-Oct-29 08:17 219 13.9
2014-Oct-29 08:02 212 13.3
2014-Oct-29 07:47 134 12.8
2014-Oct-29 07:32 158 12.8
2014-Oct-29 07:17 110 12.8
2014-Oct-29 07:02 110 11.7
2014-Oct-29 06:47 110 11.7
2014-Oct-29 06:31 110 11.7
2014-Oct-29 06:16 110 12.2
2014-Oct-29 06:01 110 12.2
2014-Oct-29 05:46 110 11.7
2014-Oct-29 05:31 143 11.7
2014-Oct-29 05:16 142 12.2
2014-Oct-29 05:01 142 12.2
2014-Oct-29 04:46 143 12.2
2014-Oct-29 04:31 142 12.2
2014-Oct-29 04:16 142 12.2
2014-Oct-29 04:01 142 12.2
2014-Oct-29 03:46 142 12.2
2014-Oct-29 03:31 122 12.2
2014-Oct-29 03:16 117 12.2
2014-Oct-29 03:01 139 12.2
2014-Oct-29 02:46 070 12.2
2014-Oct-29 02:31 070 12.8
2014-Oct-29 02:16 070 12.8
2014-Oct-29 02:01 105 12.2
2014-Oct-29 01:46 107 12.2
2014-Oct-29 01:31 107 12.2
2014-Oct-29 01:16 108 12.2
2014-Oct-29 01:01 108 12.2
2014-Oct-29 00:46 127 11.7
2014-Oct-29 00:31 143 12.2
2014-Oct-29 00:16 089 12.2
2014-Oct-29 00:01 012 12.8
2014-Oct-28 23:46 012 12.8
2014-Oct-28 23:31 073 12.8
2014-Oct-28 23:16 030 12.8
2014-Oct-28 23:01 051 13.3
2014-Oct-28 22:46 015 13.3
2014-Oct-28 22:31 008 13.9
2014-Oct-28 22:16 359 13.9
2014-Oct-28 22:01 015 13.9
2014-Oct-28 21:46 348 14.4
2014-Oct-28 21:31 319 14.4
2014-Oct-28 21:16 278 14.4
2014-Oct-28 21:01 277 15.0
2014-Oct-28 20:46 015 15.0
2014-Oct-28 20:31 017 15.0
2014-Oct-28 20:16 018 15.0
2014-Oct-28 20:01 018 15.6
2014-Oct-28 19:46 018 15.6
2014-Oct-28 19:31 341 15.6
2014-Oct-28 19:16 334 15.6
2014-Oct-28 19:01 337 15.6